ONEWEB-0189, 48217

Orbit data source: Space-Track

ONEWEB-0189, 48217 is a payload satellite owned by One Web (NAA) (UK) in LEO that was launched on Sun, 25 Apr 2021 UTC via a SOYUZ-2-1B launch vehicle from the Vostochny Cosmodrome (VOSTO). Payload-class satellites include a variety of spacecraft equipped with specific instruments for various scientific and technological missions. These include communications satellites like Starlink; space stations such as the ISS; scientific satellites like the Hubble; Earth observation satellites from companies like Planet Labs, Umbra, and HawkEye 360; GPS; miniature CubeSats for education and research; and military/defense satellites.

Loading next visibility...
Identifier
48217, 2021-031H
Orbit
LEO
Country
Flag of UKUK
Related business
Manufacturer
One Web
Mission
Operational Commercial Communications
Bus & Motor
ARROW, Unknown motor
Mass
148 kg wet, ~140 kg dry
Launch date (UTC)
2021-04-25 (5 years ago)
Launch vehicle
SOYUZ-2-1B
Launch site
Vostochny Cosmodrome (VOSTO)
Object type
Payload
Rocket body
Debris
Shape & HBR
Trap Box + 2 Pan, 6.7 m
Radar Cross Section
3.464 m², Large (>1 m²)

Expand to show TLE details & history
Last TLE update: 1 day ago

TLE from 1 day ago
0 ONEWEB-0189
1 48217U 21031H   25305.49482595 -.00000192  00000-0 -55110-3 0  9999
2 48217  87.9013 335.0566 0002287  91.8363 268.3029 13.14500577218317
Epoch: 2025-11-01T11:52Z
TLE epoch observation values (Epoch: 2025-11-01T11:52:32.962Z)
Latitude
0.00003°
Longitude
115.89517°
Altitude
1,208.744 km
Speed
7.25 km/s
True Right ascension
22h 20m 13s
True Declination
0° 00' 00"
Sunlit
Object was in daylight at epoch
Visualization orbit readout
Latitude
Unknown
Longitude
Unknown
Altitude
Unknown
Speed
Unknown
Apparent Right ascension
Unknown
Apparent Declination
Unknown
Sunlit
N/A
Visualization observer readout
Local Sidereal Time
09:11:39
Azimuth
Unknown
Elevation
Unknown
Doppler factor
Unknown
Orbital elements
Apogee altitude
1,204.646 km
Perigee altitude
1,201.179 km
Semi-major axis
7,581.049 km
Eccentricity
0.00023
Inclination
87.9013°
RAAN
335.0566°
Arg. of periapsis
91.8363°
True anomaly
268.2767°
Mean anomaly
268.3029°
Eccentric anomaly
268.2898°
Mean motion
3.28813 °/min
Orbital period
109.48 mins
BSTAR
-0.0005511
Loading maneuver chart data...
Computing Atmospheric mass density...
Loading historical data...
Loading historical data...
Loading historical data...
Loading historical data...
Loading historical data...
Loading historical data...
Loading historical data...

Documentation

Showing up to 5 results
|